Вернуться в каталог

SPIRALE A

АктивенВоенныеHEO
NORAD 33751·PAYLOAD·🇫🇷 France

Запущен Feb 12, 2009 с Guiana Space Centre

Loading…

Ближайшие Пролёты (ближайшие 24 часа)

TLE

СвежийSource: Space-Track

Эпоха: Sep 14, 2026, 07:14 UTC

1 33751U 09008C   26257.30165696  .00027075  00000-0  13316-2 0  9991
2 33751   2.0022 164.5592 5598667  63.1730 342.7544  4.72471891266416

Отслеживайте SPIRALE A в реальном времени с AllMySat

Download on the App Store